Limerick, Ireland

6:19 AM GMT on February 23, 2017 (GMT +0000)
Shannon

Weather History for EINN - July, 2014

Change the Weather History Date:

Wednesday, July 16, 2014

  Actual Average Record
Temperature  
Mean Temperature 64 °F -  
Max Temperature 68 °F 67 °F 77 °F (2006)
Min Temperature 59 °F 53 °F 48 °F (1996)
Degree Days  
Heating Degree Days 2    
Growing Degree Days 14 (Base 50)    
Moisture  
Dew Point 56 °F    
Average Humidity 74    
Maximum Humidity 94    
Minimum Humidity 48    
Precipitation  
Precipitation 0.00 in 0.09 in - ()
Sea Level Pressure  
Sea Level Pressure 30.02 in    
Wind  
Wind Speed 12 mph ()    
Max Wind Speed 17 mph    
Max Gust Speed -    
Visibility 7.9 miles    
Events Rain    
Averages and records for this station are not official NWS values.
T = Trace of Precipitation, MM = Missing Value Source: Averaged Metar Reports

Daily Weather History Graph

Daily Weather History Graph

Search for Another Location

Airport or City:

Trip Planner

Search our weather history database for the weather conditions in past years. The results will help you decide how hot, cold, wet, or windy it might be!

Date:

Astronomy

Jul. 16, 2014 Rise Set
Actual Time 5:31 AM IST 9:51 PM IST
Civil Twilight 4:44 AM IST 10:38 PM IST
Nautical Twilight 3:33 AM IST 11:47 PM IST
Astronomical Twilight 2:14 AM IST 1:09 AM IST
Moon 11:37 PM IST (7/16) 11:04 AM IST (7/16)
Length of Visible Light 17h 53m
Length of Day
16h 20m
Waning Gibbous, 78% of the Moon is Illuminated
Jul 16
Waning Gibbous
Jul 19
Last Quarter
Jul 26
New
Aug 4
First Quarter
Aug 10
Full

Hourly Weather History & Observations

Time (IST) Temp. Dew Point Humidity Pressure Visibility Wind Dir Wind Speed Gust Speed Precip Events Conditions
12:00 AM 62 °F 59 °F 87% 29.98 in 12 mi SSE 13.4 mph - - Rain Light Rain
12:00 AM 62.6 °F 59.0 °F 88% 29.98 in 6.2 mi SSE 13.8 mph - N/A   Overcast
12:30 AM 62.6 °F 59.0 °F 88% 29.95 in 6.2 mi SSE 12.7 mph - N/A   Overcast
1:00 AM 63 °F 58 °F 80% 29.96 in 12 mi SSE 11.2 mph - - Rain Light Rain
1:00 AM 62.6 °F 59.0 °F 88% 29.95 in 6.2 mi SSE 11.5 mph - N/A   Overcast
1:30 AM 64.4 °F 57.2 °F 77% 29.95 in 6.2 mi South 15.0 mph - N/A   Mostly Cloudy
2:00 AM 63 °F 58 °F 79% 29.96 in 12 mi South 13.4 mph - -   Mostly Cloudy
2:00 AM 62.6 °F 59.0 °F 88% 29.95 in 6.2 mi South 13.8 mph - N/A   Mostly Cloudy
2:30 AM 62.6 °F 57.2 °F 82% 29.95 in 6.2 mi South 15.0 mph - N/A   Overcast
3:00 AM 63 °F 58 °F 78% 29.95 in 12 mi South 13.4 mph - -   Overcast
3:00 AM 62.6 °F 57.2 °F 82% 29.95 in 6.2 mi South 13.8 mph - N/A   Overcast
3:30 AM 62.6 °F 59.0 °F 88% 29.95 in 6.2 mi South 16.1 mph - N/A   Mostly Cloudy
4:00 AM 61 °F 58 °F 88% 29.94 in 12 mi South 11.2 mph - - Rain Light Rain
4:00 AM 60.8 °F 59.0 °F 94% 29.92 in 6.2 mi South 11.5 mph - N/A   Mostly Cloudy
4:30 AM 60.8 °F 59.0 °F 94% 29.92 in 6.2 mi South 9.2 mph - N/A   Mostly Cloudy
5:00 AM 62 °F 58 °F 83% 29.94 in 16 mi SW 8.9 mph - -   Mostly Cloudy
5:00 AM 62.6 °F 59.0 °F 88% 29.92 in 6.2 mi SW 9.2 mph - N/A   Mostly Cloudy
5:30 AM 60.8 °F 55.4 °F 82% 29.95 in 6.2 mi SW 10.4 mph - N/A   Mostly Cloudy
6:00 AM 61 °F 56 °F 77% 29.95 in 19 mi SSW 11.2 mph - -   Mostly Cloudy
6:00 AM 60.8 °F 55.4 °F 82% 29.95 in 6.2 mi SSW 11.5 mph - N/A   Mostly Cloudy
6:30 AM 60.8 °F 55.4 °F 82% 29.95 in 6.2 mi SSW 12.7 mph - N/A   Mostly Cloudy
7:00 AM 61 °F 56 °F 80% 29.97 in 10 mi SW 15.7 mph - - Rain Light Rain
7:00 AM 60.8 °F 57.2 °F 88% 29.95 in 6.2 mi SW 16.1 mph - N/A   Mostly Cloudy
7:30 AM 60.8 °F 57.2 °F 88% 29.98 in 2.5 mi SW 15.0 mph - N/A   Light Drizzle
8:00 AM 60 °F 58 °F 89% 29.99 in 5 mi WSW 13.4 mph - - Rain Light Drizzle
8:00 AM 59.0 °F 57.2 °F 94% 29.98 in 5.0 mi WSW 12.7 mph - N/A   Light Drizzle
8:30 AM 60.8 °F 57.2 °F 88% 29.98 in 6.2 mi WSW 10.4 mph - N/A   Mostly Cloudy
9:00 AM 60 °F 56 °F 83% 30.00 in 19 mi SW 8.9 mph - - Rain Light Drizzle
9:00 AM 60.8 °F 57.2 °F 88% 29.98 in 6.2 mi SW 9.2 mph - N/A   Mostly Cloudy
9:30 AM 60.8 °F 55.4 °F 82% 30.01 in 6.2 mi WSW 11.5 mph - N/A   Mostly Cloudy
10:00 AM 62 °F 56 °F 74% 30.01 in 19 mi SW 13.4 mph - -   Partly Cloudy
10:00 AM 62.6 °F 55.4 °F 77% 30.01 in 6.2 mi SW 12.7 mph - N/A   Mostly Cloudy
10:30 AM 62.6 °F 55.4 °F 77% 30.01 in 6.2 mi SW 15.0 mph - N/A   Mostly Cloudy
11:00 AM 64 °F 55 °F 66% 30.03 in 11 mi SW 15.7 mph - -   Mostly Cloudy
11:00 AM 64.4 °F 57.2 °F 77% 30.01 in 6.2 mi SW 15.0 mph - N/A   Mostly Cloudy
11:30 AM 64.4 °F 55.4 °F 73% 30.04 in 6.2 mi West 10.4 mph - N/A   Mostly Cloudy
12:00 PM 64 °F 55 °F 64% 30.04 in 19 mi WSW 11.2 mph - - Rain Light Rain Showers
12:30 PM 64.4 °F 53.6 °F 68% 30.04 in 6.2 mi WSW 13.8 mph - N/A   Mostly Cloudy
1:00 PM 65 °F 54 °F 58% 30.06 in 25 mi WSW 15.7 mph - -   Partly Cloudy
1:00 PM 64.4 °F 53.6 °F 68% 30.04 in 6.2 mi WSW 13.8 mph - N/A   Scattered Clouds
1:30 PM 66.2 °F 55.4 °F 68% 30.04 in 6.2 mi SW 13.8 mph - N/A   Partly Cloudy
2:00 PM 68 °F 54 °F 52% 30.06 in 31 mi SW 15.7 mph - -   Scattered Clouds
2:00 PM 68.0 °F 53.6 °F 60% 30.04 in 6.2 mi SW 15.0 mph - N/A   Partly Cloudy
2:30 PM 68.0 °F 53.6 °F 60% 30.04 in 6.2 mi WSW 17.3 mph - N/A   Partly Cloudy
3:00 PM 68 °F 53 °F 48% 30.06 in 28 mi WSW 15.7 mph - -   Scattered Clouds
3:00 PM 68.0 °F 51.8 °F 56% 30.04 in 6.2 mi WSW 16.1 mph - N/A   Partly Cloudy
3:30 PM 68.0 °F 53.6 °F 60% 30.04 in 6.2 mi WSW 17.3 mph - N/A   Partly Cloudy
4:00 PM 68 °F 53 °F 50% 30.07 in 31 mi WSW 15.7 mph - -   Scattered Clouds
4:00 PM 68.0 °F 53.6 °F 60% 30.06 in 6.2 mi WSW 16.1 mph - N/A   Partly Cloudy
4:30 PM 68.0 °F 53.6 °F 60% 30.06 in 6.2 mi WSW 13.8 mph - N/A   Partly Cloudy
5:00 PM 68 °F 53 °F 49% 30.07 in 31 mi WSW 15.7 mph - -   Partly Cloudy
5:00 PM 68.0 °F 53.6 °F 60% 30.06 in 6.2 mi WSW 15.0 mph - N/A   Scattered Clouds
5:30 PM 68.0 °F 53.6 °F 60% 30.06 in 6.2 mi WSW 15.0 mph - N/A   Partly Cloudy
6:00 PM 67 °F 54 °F 53% 30.08 in 31 mi WSW 15.7 mph - -   Mostly Cloudy
6:00 PM 68.0 °F 53.6 °F 60% 30.06 in 6.2 mi WSW 15.0 mph - N/A   Mostly Cloudy
6:30 PM 66.2 °F 53.6 °F 64% 30.06 in 6.2 mi West 11.5 mph - N/A   Mostly Cloudy
7:00 PM 66 °F 54 °F 57% 30.09 in 31 mi WSW 15.7 mph - -   Mostly Cloudy
7:00 PM 66.2 °F 53.6 °F 64% 30.06 in 6.2 mi WSW 13.8 mph - N/A   Mostly Cloudy
7:30 PM 66.2 °F 55.4 °F 68% 30.06 in 6.2 mi West 11.5 mph - N/A   Mostly Cloudy
8:00 PM 64 °F 54 °F 61% 30.09 in 28 mi West 11.2 mph - -   Partly Cloudy
8:00 PM 64.4 °F 53.6 °F 68% 30.09 in 6.2 mi West 10.4 mph - N/A   Scattered Clouds
8:30 PM 64.4 °F 53.6 °F 68% 30.09 in 6.2 mi West 11.5 mph - N/A   Mostly Cloudy
9:00 PM 64 °F 54 °F 62% 30.11 in 28 mi West 11.2 mph - -   Scattered Clouds
9:00 PM 64.4 °F 53.6 °F 68% 30.09 in 6.2 mi West 10.4 mph - N/A   Partly Cloudy
9:30 PM 60.8 °F 53.6 °F 77% 30.09 in 6.2 mi WSW 5.8 mph - N/A   Partly Cloudy
10:00 PM 60 °F 55 °F 77% 30.13 in 25 mi WSW 6.7 mph - -   Scattered Clouds
10:00 PM 60.8 °F 55.4 °F 82% 30.12 in 6.2 mi WSW 5.8 mph - N/A   Partly Cloudy
10:30 PM 59.0 °F 55.4 °F 88% 30.12 in 6.2 mi WSW 5.8 mph - N/A   Partly Cloudy
11:00 PM 59 °F 55 °F 84% 30.14 in 16 mi West 6.7 mph - -   Scattered Clouds
11:00 PM 59.0 °F 55.4 °F 88% 30.12 in 6.2 mi West 5.8 mph - N/A   Partly Cloudy
11:30 PM 59.0 °F 55.4 °F 88% 30.12 in 6.2 mi West 3.5 mph - N/A   Partly Cloudy